Location: Niedergestelen
(46.3129°N, 7.7822°E)
Time: 06:31:57
(UTC+00:00)

ADEOS Rocket - Pass Details

Date: 01 December 2020
Orbit: 859 x 1306 km, 98.7° (Epoch: 18 January)

Event Time Altitude Azimuth Distance (km) Brightness Sun altitude
Rises 16:07:13 0° 14° (NNE) 4,268 5.9 -4.3°
Reaches altitude 10° 16:09:55 10° 16° (NNE) 3,317 5.4 -4.7°
Maximum altitude 16:17:44 79° 103° (ESE) 1,331 3.7 -5.9°
Drops below altitude 10° 16:25:24 10° 191° (S) 3,255 6.3 -7.1°
Sets 16:28:01 0° 192° (SSW) 4,183 6.9 -7.5°
